Showing default

GLOBALSTAR M071, 31576

Orbit data source: Space-Track

GLOBALSTAR M071, 31576 is a payload satellite owned by Globalstar (US) in LEO that was launched on Tue, 29 May 2007 UTC via a SOYUZ-FG launch vehicle from the Tyuratam Missile And Space Complex (TTMTR). Payload-class satellites include a variety of spacecraft equipped with specific instruments for various scientific and technological missions. These include communications satellites like Starlink; space stations such as the ISS; scientific satellites like the Hubble; Earth observation satellites from companies like Planet Labs, Umbra, and HawkEye 360; GPS; miniature CubeSats for education and research; and military/defense satellites.

Loading next visibility...
Identifier
31576, 2007-020F
Orbit
LEO
Country
Flag of UnknownUnknown / GLOB
Related business
Manufacturer
SS/Loral
Mission
Non-operational Commercial Communications
Bus & Motor
LS-400, LS-400 AOCS
Mass
450 kg wet, 380 kg dry
Launch date (UTC)
2007-05-29 (18 years ago)
Launch vehicle
SOYUZ-FG
Launch site
Tyuratam Missile And Space Complex (TTMTR)
Object type
Payload
Rocket body
Debris
Shape & HBR
Box + 2 Pan, 6.0 m
Radar Cross Section
5.587 m², Large (>1 m²)

Expand to show TLE details & history
Last TLE update: 11 hours ago

TLE from 11 hours ago
0 GLOBALSTAR M071
1 31576U 07020F   25261.15975074  .00000004  00000-0  93579-3 0  9995
2 31576  52.0084 330.3079 0000397 290.0292  89.6500 12.18258220506270
Epoch: 2025-09-18T03:50Z
TLE epoch observation values (Epoch: 2025-09-18T03:50:02.463Z)
Latitude
15.40955°
Longitude
-72.157°
Altitude
1,600.132 km
Speed
7.072 km/s
True Right ascension
22h 50m 42s
True Declination
15° 19' 52"
Sunlit
Object was in full shadow at epoch
Visualization orbit readout
Latitude
Unknown
Longitude
Unknown
Altitude
Unknown
Speed
Unknown
Apparent Right ascension
Unknown
Apparent Declination
Unknown
Sunlit
N/A
Visualization observer readout
Local Sidereal Time
07:31:04
Azimuth
Unknown
Elevation
Unknown
Doppler factor
Unknown
Orbital elements
Apogee altitude
1,600.836 km
Perigee altitude
1,600.202 km
Semi-major axis
7,978.656 km
Eccentricity
0.00004
Inclination
52.0084°
RAAN
330.3079°
Arg. of periapsis
290.0292°
True anomaly
89.65455°
Mean anomaly
89.65°
Eccentric anomaly
89.65227°
Mean motion
3.04543 °/min
Orbital period
118.21 mins
BSTAR
0.00093579
Loading maneuver chart data...
Computing Atmospheric mass density...
Loading historical data...
Loading historical data...
Loading historical data...
Loading historical data...
Loading historical data...
Loading historical data...
Loading historical data...

Documentation

Showing up to 5 results
|